Location: Ponte Samoggia
(44.5667°N, 11.1333°E)
Time: 22:19:31
(UTC+00:00)

USA 307 - Pass Details

Date: 26 May 2022
Orbit: 552 x 554 km, 54.0° (Epoch: 17 June)

Event Time Altitude Azimuth Distance (km) Brightness Sun altitude
Exits shadow 01:47:50 - 276° (W) 1,882 5.2 -15.4°
Reaches altitude 10° 01:47:57 10° 277° (W) 1,838 5.2 -15.4°
Maximum altitude 01:51:42 31° 341° (NNW) 989 4.4 -15.0°
Drops below altitude 10° 01:55:28 10° 45° (NE) 1,845 6.9 -14.5°
Sets 01:57:55 0° 56° (NE) 2,743 8.0 -14.3°
